CAPE
269 414 599 499 598 131 193 141 34 33 0 104 39 515 658 524 447 612 752 706 458 115 55 20 25 145 333 773 1501 1905 2540 3159 2992 2542 2197 2069 1708 1595 1578 1504 1813 2055 1845 2002
468 253 202 253 180 51 80 80 39 6 9 297 18 42 440 340 322 396 519 729 809 715 623 682 784 801 847 1422 1899 2709 2814 3873 3030 2680 2502 2665 2361 1921 1684 1968 2291 1962 2194 2131
116 220 347 340 7 88 0 2 27 14 0 0 0 0 0 15 129 268 337 673 678 827 871 1049 1349 1344 1223 1517 2120 2727 3156 3792 3769 3215 3047 3197 2876 3004 2879 2404 3341 2773 2361 2235
1 251 575 97 38 58 1 0 8 28 6 38 46 10 76 1 0 2 59 264 412 640 767 1343 1496 1716 1637 1686 1940 2492 3511 3487 4101 4051 3440 4124 2959 2834 2721 2882 2482 2702 3883 2832
617 308 375 122 118 0 47 0 9 61 92 4 17 51 0 0 1 5 3 25 73 148 403 583 958 1555 1602 1759 1980 2423 3753 3950 3819 4126 4132 3847 3911 3433 3739 3444 4230 3231 4148 3706
298 360 430 46 0 0 0 2 58 80 27 62 39 64 76 15 4 41 2 15 7 48 206 272 549 979 1259 1287 1744 2475 3893 4201 4352 4680 4670 4312 4546 4944 4821 4798 4971 4271 3036 3130
29 157 395 12 1 24 11 15 144 76 112 83 29 83 112 63 31 58 161 29 55 121 125 241 502 489 731 1066 1329 2274 4485 4787 4829 4669 4595 4886 5060 5056 4895 4806 4137 4160 3715 3737
61 145 204 0 0 0 7 6 28 151 23 34 15 185 103 93 40 171 100 61 86 229 222 160 184 567 848 1070 1942 2813 4696 4725 4567 4436 4676 4909 4974 4593 4606 4524 4107 3913 3797 3821
84 43 0 0 0 0 1 44 0 0 27 108 11 74 147 158 170 0 0 0 23 79 88 203 173 264 769 1171 2206 3353 4638 4845 4727 4654 4885 5020 4995 4876 4534 5264 5249 4532 4898 3907
108 93 0 0 0 0 0 0 0 3 42 128 70 89 5 11 9 2 0 0 0 5 19 75 42 127 447 1153 2925 3368 4476 4802 4828 4823 4995 4965 4971 4988 4963 4963 4739 4459 4164 4019
2 64 105 0 0 0 0 0 0 5 0 46 72 11 12 36 6 0 0 0 6 217 318 465 379 448 892 1736 2870 3375 3868 4611 4871 5266 5040 5184 5018 5050 4872 4542 4320 4082 4002 3985
97 122 113 31 0 0 0 0 0 0 0 0 0 24 84 6 0 0 0 107 174 207 264 794 1066 1423 2784 3012 3263 3832 4517 4900 5272 5252 5300 4971 4642 4640 4259 4333 4112 4226 3646 3206
123 48 23 39 0 0 1 0 0 0 1 11 25 97 31 51 8 77 88 333 561 782 766 1083 1876 2062 2998 3371 3536 3516 4117 4196 4776 5278 4776 4538 4325 4332 4150 3881 4125 4084 3595 3128
0 0 0 5 6 5 1 0 0 0 0 4 14 38 86 340 322 313 337 560 561 771 1056 1208 2181 2575 4351 4259 4384 4159 3900 3518 4390 4432 4195 4252 4286 4201 3956 4489 4211 3801 3549 3247
0 0 0 0 0 0 0 0 0 28 10 2 0 39 423 490 506 480 436 451 529 1042 1139 1517 1581 2758 3952 4134 4289 3703 3089 3472 3656 4390 4239 4486 4979 4613 4347 4385 4155 3891 3539 3003
0 1 0 0 0 0 0 3 0 0 4 16 41 380 276 221 114 135 372 345 1027 940 937 1293 1854 2445 3282 3618 3926 3868 3576 3839 3641 4125 4253 4903 4985 4873 4891 4620 4035 3441 3475 2838
2 3 0 0 0 0 9 14 3 0 0 0 6 280 153 73 11 108 282 607 640 626 633 1178 1518 2347 3188 3281 2819 857 1919 2590 3726 4518 4645 4756 4847 4462 4338 3869 3776 3536 3338 2749
4 0 10 0 12 11 5 0 2 5 68 60 210 217 123 86 17 18 76 79 173 258 500 1166 1890 2496 1950 1286 2000 2350 1833 2920 3341 3819 4282 4315 4468 4195 3948 3740 3895 3732 3247 2651
25 19 30 35 27 28 41 3 99 141 149 139 161 108 32 5 0 39 13 116 239 513 853 1035 1189 1322 1114 1347 1369 2244 2530 2696 2654 2929 3212 2842 3807 3957 3812 3562 2549 2240 1778 2510
129 213 58 150 153 248 308 49 47 100 138 30 8 0 0 0 0 2 46 0 150 406 961 928 841 810 1801 2475 2309 2682 2783 3408 3400 3770 3916 3696 3776 3795 3605 2935 2285 1257 1291 2045
50 375 248 178 225 140 9 9 0 42 218 38 4 0 0 0 48 84 8 243 397 867 892 1183 1110 1120 1816 2038 2382 2457 2938 2919 2912 3230 3076 3178 3364 3383 3424 3343 2374 1786 1428 1798
59 239 71 173 180 295 13 26 37 39 14 31 1 0 0 8 23 95 164 608 716 899 861 752 919 1287 1382 1613 1973 2302 2190 2456 2556 2235 2211 2210 2508 2806 2598 2563 2065 1297 802 486
37 20 81 130 233 297 19 11 1 0 12 0 0 0 0 22 100 152 468 690 730 734 861 627 653 667 1054 1486 1719 1659 1929 1997 2148 2131 1893 1907 2113 2061 2187 2074 1524 1676 655 1129
0 47 3 89 38 60 24 1 74 75 21 1 8 57 120 137 162 211 771 770 718 664 576 669 828 1075 1273 1479 1617 1530 1668 1847 1773 1597 1586 1520 1488 1212 1283 1479 1625 1412 846 991
0 0 0 0 16 66 22 28 41 39 78 98 143 138 156 145 247 590 683 912 855 777 1231 883 1143 1297 1464 1587 1624 1574 1647 1745 1501 1411 1400 1328 1282 1278 977 703 762 1242 816 1001
0 0 0 1 10 9 140 6 0 6 85 148 144 156 110 146 212 441 826 889 891 1139 1064 1389 1366 1423 1546 1628 1550 1760 1772 1681 1441 1319 1143 1274 1256 1169 1182 567 388 425 361 155
CIN
-172 -149 -111 -91 -28 -3 -1 -2 -0 -1 -0 -3 -3 -1 -5 -19 -1 -0 -1 -9 -36 -97 -129 -174 -212 -152 -131 -91 -56 -65 -29 -23 -8 -15 -52 -42 -51 -55 -43 -43 -14 -18 -15 -30
-117 -193 -84 -86 -16 -14 -26 -33 -1 -7 -1 -1 -0 -0 -0 -0 -0 -0 -1 -2 -4 -22 -44 -67 -74 -66 -61 -45 -68 -51 -50 -14 -43 -47 -55 -26 -34 -44 -46 -23 -28 -54 -33 -24
-233 -172 -70 -12 -17 -23 -3 -23 -0 -0 -0 -0 -0 -0 -0 -15 -6 -3 -5 -2 -2 -2 -8 -28 -46 -41 -38 -21 -40 -52 -74 -47 -52 -65 -43 -27 -38 -34 -20 -20 -12 -33 -69 -89
-130 -247 -56 -1 -23 -21 -8 -0 -0 -2 -0 -7 -2 -0 -38 -0 -0 -6 -36 -23 -30 -18 -18 -2 -9 -19 -26 -14 -15 -47 -72 -99 -64 -64 -62 -16 -52 -56 -47 -24 -37 -29 -24 -41
-124 -40 -1 -2 -6 -0 -34 -0 -2 -43 -78 -59 -33 -31 -0 -0 -21 -11 -0 -105 -62 -78 -16 -6 -1 -2 -19 -5 -7 -37 -78 -92 -104 -87 -67 -42 -19 -14 -5 -8 -16 -54 -32 -42
-6 -15 -5 -5 -0 -0 -0 -11 -6 -12 -89 -64 -92 -76 -36 -63 -49 -25 -3 -19 -1 -38 -7 -12 -19 -19 -27 -11 -10 -15 -84 -122 -116 -64 -56 -61 -23 -6 -5 -10 -15 -28 -44 -41
-171 -51 -3 -10 -0 -2 -0 -12 -0 -1 -16 -0 -37 -10 -28 -62 -91 -44 -33 -5 -2 -3 -26 -11 -13 -25 -39 -53 -56 -18 -89 -97 -94 -99 -81 -46 -16 -7 -12 -17 -30 -18 -17 -13
-224 -21 -0 -0 -1 -0 -0 -2 -2 -11 -1 -6 -5 -0 -14 -48 -66 -26 -6 -8 -10 -3 -4 -0 -14 -18 -35 -54 -59 -48 -90 -118 -126 -111 -96 -62 -40 -45 -29 -25 -28 -22 -15 -6
-190 -61 -0 -0 -0 -0 -0 -7 -0 -0 -2 -6 -54 -6 -13 -6 -3 -0 -0 -0 -6 -6 -12 -2 -3 -37 -26 -56 -59 -61 -111 -100 -117 -114 -76 -43 -24 -22 -17 -1 -6 -3 -5 -6
-26 -8 -0 -0 -0 -0 -0 -0 -0 -0 -5 -8 -15 -14 -80 -18 -39 -42 -0 -0 -0 -66 -70 -59 -51 -340 -1 -24 -67 -74 -141 -89 -59 -66 -52 -37 -19 -9 -3 -2 -7 -4 -4 -5
-89 -202 -3 -0 -0 -0 -0 -0 -0 -0 -0 -0 -2 -57 -66 -6 -66 -0 -0 -0 -14 -55 -61 -85 -105 -62 -56 -38 -73 -107 -162 -103 -39 -7 -31 -9 -12 -4 -4 -8 -5 -2 -1 -2
-10 -11 -8 -16 -0 -0 -0 -0 -0 -0 -0 -0 -0 -13 -9 -16 -0 -0 -0 -56 -85 -109 -79 -58 -66 -79 -21 -106 -127 -95 -76 -45 -2 -2 -1 -13 -16 -9 -14 -1 -1 -1 -2 -4
-21 -1 -0 -1 -5 -0 -0 -0 -0 -0 -0 -0 -12 -3 -43 -18 -13 -22 -70 -51 -40 -32 -43 -63 -41 -62 -18 -60 -103 -101 -61 -38 -14 -1 -7 -10 -10 -10 -8 -3 -2 -2 -4 -1
-0 -0 -0 -0 -1 -3 -1 -0 -0 -0 -0 -0 -0 -12 -10 -21 -20 -45 -81 -58 -55 -41 -27 -10 -12 -35 -24 -39 -36 -34 -11 -19 -10 -14 -11 -6 -7 -8 -6 -3 -2 -2 -3 -2
-0 -0 -0 -0 -0 -0 -0 -0 -0 -0 -0 -0 -0 -2 -37 -58 -84 -94 -93 -59 -36 -8 -8 -9 -4 -7 -12 -20 -8 -15 -11 -5 -8 -27 -13 -7 -5 -4 -6 -4 -4 -2 -2 -1
-0 -0 -0 -0 -0 -0 -0 -90 -0 -0 -0 -0 -0 -45 -51 -146 -174 -152 -90 -56 -35 -33 -30 -22 -6 -1 -2 -15 -14 -16 -10 -14 -14 -8 -7 -8 -12 -8 -4 -5 -14 -15 -2 -2
-0 -1 -0 -0 -0 -0 -34 -0 -1 -0 -0 -0 -0 -42 -146 -174 -195 -175 -93 -80 -93 -88 -57 -16 -26 -12 -4 -21 -75 -238 -25 -31 -4 -13 -11 -15 -12 -14 -19 -20 -19 -6 -2 -4
-1 -0 -39 -0 -46 -45 -2 -0 -2 -75 -56 -70 -50 -100 -156 -160 -268 -232 -260 -335 -230 -189 -84 -3 -9 -8 -69 -172 -116 -41 -33 -27 -12 -8 -7 -13 -19 -17 -23 -19 -6 -4 -6 -3
-4 -28 -16 -39 -37 -51 -63 -2 -41 -43 -21 -71 -124 -192 -234 -311 -0 -252 -307 -251 -131 -50 -6 -8 -10 -32 -167 -136 -140 -52 -70 -70 -58 -47 -53 -65 -14 -13 -16 -17 -25 -50 -21 -9
-3 -7 -14 -3 -3 -0 -0 -79 -152 -83 -9 -183 -259 -0 -0 -0 -0 -283 -356 -0 -203 -73 -11 -24 -21 -17 -22 -26 -30 -27 -36 -20 -14 -3 -6 -11 -18 -9 -11 -40 -55 -79 -0 -5
-45 -6 -0 -0 -0 -2 -59 -73 -0 -76 -112 -252 -311 -0 -0 -0 -71 -267 -358 -151 -65 -11 -8 -8 -8 -11 -9 -22 -19 -11 -2 -2 -5 -4 -6 -8 -8 -11 -14 -20 -47 -56 -23 -26
-8 -9 -45 -5 -3 -3 -157 -90 -89 -240 -284 -294 -64 -0 -0 -371 -350 -245 -178 -26 -7 -2 -5 -2 -2 -2 -13 -12 -6 -5 -7 -5 -4 -8 -5 -8 -5 -5 -9 -18 -31 -14 -81 -34
-40 -37 -23 -32 -9 -19 -141 -219 -229 -0 -350 -0 -0 -0 -0 -313 -200 -176 -59 -15 -1 -0 -1 -1 -1 -16 -12 -3 -3 -2 -5 -6 -4 -4 -4 -4 -5 -4 -10 -11 -28 -36 -97 -17
-0 -93 -40 -61 -114 -55 -137 -81 -295 -378 -377 -64 -406 -281 -182 -140 -116 -96 -4 -2 -1 -0 -0 -0 -1 -0 -0 -1 -0 -1 -2 -2 -1 -1 -1 -3 -5 -7 -14 -22 -14 -18 -25 -20
-0 -0 -0 -0 -56 -195 -187 -295 -321 -352 -277 -224 -169 -146 -139 -80 -55 -3 -1 -2 -0 -1 -1 -4 -0 -1 -1 -2 -2 -1 -1 -1 -1 -0 -1 -2 -6 -1 -6 -48 -40 -13 -17 -13
-0 -0 -0 -3 -75 -84 -149 -246 -0 -363 -222 -150 -107 -105 -55 -53 -29 -0 -0 -1 -2 -0 -2 -0 -1 -1 -1 -1 -5 -5 -2 -5 -5 -2 -1 -2 -2 -1 -5 -35 -62 -65 -84 -94
Wind_Speed
12 5 9 20 17 7 9 6 12 10 3 6 6 16 15 13 11 13 14 14 11 12 13 14 14 14 13 14 11 13 10 9 6 7 9 8 8 8 8 8 8 7 7 11
9 14 16 17 15 4 18 21 5 2 2 9 13 10 17 14 10 13 13 16 15 14 17 17 15 14 15 15 16 13 12 10 9 7 6 7 8 8 8 8 8 9 7 7
6 19 21 20 12 8 9 14 4 9 7 3 13 11 8 7 6 9 9 16 15 15 15 17 17 15 14 13 15 14 14 13 12 11 7 6 6 6 6 6 3 6 10 9
6 17 22 11 19 12 6 16 10 8 9 2 9 8 13 3 10 6 11 8 12 14 14 13 16 17 16 15 15 15 16 15 13 13 10 8 8 9 8 7 6 6 6 9
15 17 10 8 9 6 5 6 7 18 19 10 16 10 1 6 9 14 13 11 13 12 13 15 18 17 17 16 15 15 15 15 14 13 13 9 10 8 6 6 6 9 7 9
16 13 18 6 3 6 3 9 7 2 13 7 10 14 9 9 4 9 16 12 12 13 14 15 15 15 15 13 14 14 15 14 14 11 13 12 10 7 5 6 5 3 6 8
15 11 21 1 12 4 7 8 6 2 2 7 13 11 6 8 8 5 12 10 14 13 13 14 14 14 14 14 11 9 15 12 12 13 11 11 11 10 9 8 7 7 7 5
6 6 15 6 6 8 10 11 3 7 7 4 9 6 11 13 17 18 8 4 3 8 13 15 20 17 17 16 14 10 14 11 10 9 10 9 9 7 7 8 7 6 6 6
3 12 7 1 5 7 5 8 9 13 8 8 3 12 13 16 14 10 5 5 9 9 11 12 12 13 16 14 15 13 13 9 10 11 9 8 8 8 6 4 2 4 5 6
4 8 7 7 5 7 5 8 8 7 4 10 13 7 7 5 7 8 6 10 9 9 11 14 11 8 10 15 14 12 14 10 8 9 8 8 8 7 7 6 6 7 7 7
15 12 5 8 1 9 8 10 12 8 11 9 7 7 5 7 4 3 4 9 11 13 15 16 17 14 10 13 14 13 12 10 8 6 7 7 8 7 7 6 7 7 8 6
12 12 10 6 7 7 6 5 7 7 9 10 8 5 11 9 1 6 12 7 7 8 9 10 13 10 4 13 12 11 9 9 7 7 7 7 7 7 6 6 6 5 4 6
14 5 6 7 3 5 4 6 9 6 8 10 7 2 12 8 6 8 8 13 10 9 8 6 6 7 5 10 10 10 9 8 9 8 7 7 7 7 8 8 8 6 6 8
5 10 13 11 16 12 7 7 6 9 9 12 13 16 17 17 15 15 15 14 14 13 11 8 7 6 6 6 8 7 8 9 10 10 9 9 10 9 8 7 5 5 7 8
5 11 13 15 17 15 14 14 14 10 8 11 15 12 16 16 15 15 14 12 11 11 13 13 5 6 7 7 9 12 11 9 7 10 9 7 6 6 6 6 6 6 6 7
9 11 7 8 13 11 15 18 16 18 11 12 9 17 14 14 14 14 13 13 15 14 14 15 15 7 7 13 9 8 8 8 8 6 6 6 8 7 7 8 8 8 9 7
4 7 9 10 12 13 12 7 9 10 10 13 11 12 12 12 12 13 15 14 13 14 13 11 14 14 10 8 10 11 10 4 3 6 6 7 8 10 10 9 9 11 8 8
7 2 7 9 10 13 12 19 8 6 5 10 9 12 11 12 13 14 12 12 11 11 14 9 10 10 9 5 7 7 9 9 5 5 5 7 9 10 9 10 10 9 7 7
8 4 5 5 10 16 15 7 9 8 8 13 9 8 9 12 12 10 14 11 11 9 12 12 11 11 11 13 12 12 11 9 8 8 8 10 10 10 9 12 14 13 13 9
3 8 6 8 7 13 10 11 6 6 4 11 9 9 11 12 10 8 12 13 13 12 10 12 13 13 11 10 10 9 8 7 7 9 9 9 10 11 11 12 11 1 13 18
7 5 10 10 13 13 13 12 4 6 6 9 11 10 12 9 8 10 11 13 15 12 13 12 12 11 10 10 10 9 9 9 11 11 11 11 11 13 13 12 9 8 13 7
8 9 10 11 13 8 9 4 6 5 6 10 11 12 11 10 10 11 12 11 13 12 13 13 11 10 10 11 9 9 10 10 11 12 13 14 14 12 12 13 12 6 4 9
12 10 8 3 7 5 6 9 11 9 8 10 11 10 10 10 9 11 10 10 10 13 11 11 11 12 11 11 10 12 11 11 11 12 13 14 14 14 13 12 11 4 7 10
14 9 5 7 5 9 8 9 11 9 7 9 9 10 12 12 11 11 9 9 9 9 10 11 12 11 11 10 11 12 12 11 12 14 15 14 13 15 13 9 8 7 7 8
8 6 4 6 5 8 9 11 7 7 8 9 10 11 12 14 12 10 8 9 8 10 8 10 11 11 11 10 10 12 12 11 12 14 12 13 12 13 12 10 8 7 10 8
8 6 5 4 8 4 9 10 9 7 7 10 11 12 14 14 13 12 8 8 9 8 9 9 11 13 13 11 11 12 10 11 12 13 11 11 11 10 10 6 4 14 19 9
Wind_Direction
325 270 195 235 254 259 232 271 89 83 38 286 96 169 144 155 197 155 168 160 182 183 182 169 192 182 177 168 172 175 186 178 172 174 186 205 220 215 216 222 227 216 199 184
253 295 260 254 250 289 21 349 42 31 70 211 90 88 128 149 194 167 184 166 182 190 178 177 188 193 195 179 179 181 185 187 191 196 211 210 207 221 220 216 211 201 198 198
198 254 290 246 46 24 341 304 298 152 106 332 124 112 106 98 178 138 227 174 181 187 201 183 181 194 202 199 184 182 187 187 194 204 210 217 238 268 258 225 212 195 198 196
314 279 278 254 133 114 147 271 273 224 142 285 199 124 69 142 136 179 222 178 186 193 190 191 185 188 203 203 193 188 185 194 190 197 216 227 225 230 231 240 213 223 198 208
234 261 282 280 134 220 207 272 301 96 99 337 18 38 263 222 184 180 164 188 192 178 182 200 189 193 202 204 198 189 183 190 196 194 206 216 239 265 275 249 234 211 193 194
250 246 260 280 3 233 325 269 343 150 129 216 196 185 195 212 224 307 160 176 176 180 182 187 187 183 189 201 191 183 179 188 190 193 193 217 241 252 269 291 306 265 223 209
324 287 248 199 281 277 250 347 303 42 201 231 202 223 138 195 189 312 277 214 171 171 196 188 180 181 179 177 180 176 163 175 178 185 199 205 216 226 242 258 269 274 281 274
288 252 236 118 266 342 278 287 87 264 288 240 205 106 148 176 197 203 227 4 340 200 222 206 198 185 176 173 166 157 152 161 170 184 201 205 210 218 221 229 239 253 263 272
192 250 105 342 309 285 4 320 331 291 352 79 73 84 142 184 205 92 358 249 226 251 276 280 261 217 177 175 157 141 144 154 176 190 195 202 204 215 231 243 298 268 277 275
188 269 217 127 238 203 289 310 313 326 46 305 103 113 164 193 79 54 328 345 342 337 338 332 28 101 224 166 140 139 135 152 192 192 186 192 196 204 216 229 237 253 268 271
107 329 320 229 221 25 340 322 349 345 333 315 351 76 260 131 73 339 309 4 1 14 9 360 346 347 323 144 136 129 135 150 185 195 180 187 191 196 206 222 233 240 250 257
185 171 224 207 155 49 303 9 326 349 330 333 340 340 110 96 113 54 29 11 54 20 360 354 337 345 10 101 112 121 136 152 172 190 187 190 197 206 218 225 241 244 271 279
344 274 298 37 92 141 268 42 329 283 279 310 316 178 107 285 33 46 46 31 16 9 357 356 340 324 249 128 133 141 152 174 177 182 197 210 214 212 220 228 228 230 233 249
320 304 310 321 159 259 309 317 322 309 312 318 310 329 354 41 35 33 25 14 358 345 352 343 12 312 114 129 142 160 174 195 179 180 207 216 214 218 226 224 224 234 247 247
248 277 308 330 334 335 329 302 295 298 277 298 314 322 48 39 31 20 8 356 343 10 2 351 0 324 153 186 188 178 189 197 203 182 204 226 230 225 232 229 225 240 249 262
260 267 256 279 269 301 330 327 306 283 276 293 304 79 53 43 24 10 355 352 17 8 356 351 341 303 239 214 190 228 164 202 176 190 214 223 229 230 235 226 230 229 229 235
257 5 356 314 324 312 283 342 327 338 346 343 354 59 48 29 13 357 356 26 13 346 345 338 328 319 284 272 36 44 307 106 339 173 209 222 232 234 236 250 227 240 233 217
295 333 268 280 304 296 329 325 56 15 346 26 19 38 26 16 7 330 31 9 341 339 321 343 344 336 336 70 159 26 18 32 358 305 276 247 239 241 231 243 239 239 232 230
257 281 308 330 301 310 313 359 27 21 2 50 36 18 6 4 337 310 17 350 334 352 352 4 4 11 36 14 8 12 16 3 336 315 291 289 283 269 261 249 257 254 291 245
4 329 231 242 274 277 26 54 32 336 251 49 28 14 354 350 324 339 343 321 331 8 14 15 0 348 11 15 6 354 343 327 312 308 311 310 308 294 272 262 264 202 222 258
293 258 276 306 309 309 27 358 358 261 52 11 6 357 342 332 334 325 333 9 9 7 357 6 354 349 358 356 351 338 326 323 320 312 312 302 300 292 276 275 270 223 247 238
328 323 314 302 286 307 30 15 21 39 18 359 349 333 335 338 338 354 357 5 1 356 350 347 334 335 344 334 328 321 316 315 322 317 308 305 298 290 291 278 282 291 75 309
316 325 309 322 326 41 80 36 61 38 1 345 326 330 330 325 334 348 355 359 354 340 341 333 332 336 326 328 330 319 315 312 304 304 301 296 297 296 286 284 281 204 202 228
297 30 302 320 316 36 50 47 50 19 341 318 332 331 337 338 341 340 351 354 344 331 324 333 327 314 317 320 318 310 307 308 312 306 304 305 307 304 298 280 263 246 230 230
307 318 309 306 9 358 69 51 31 346 334 340 337 337 339 324 325 335 346 346 328 315 336 322 308 303 303 304 308 305 302 308 312 305 307 306 302 297 288 286 266 258 245 242
298 31 338 53 74 45 346 342 341 326 337 333 321 344 313 317 326 324 329 315 308 312 301 305 308 300 294 289 290 291 310 315 303 300 303 301 296 293 290 274 263 249 256 257